Inquirer Daily News

Weather

Get conditions and forecasts for any City, State, ZIP code or Country:  
Northeast Philadelphia, PA
on Sunday, November 18, 2012

Sunday
Previous Day Next Day
Daily Summary
 ActualAverage (KTTN)Record (KTTN)
Temperature
Mean Temperature °F 45°F  
Max Temperature 50°F 54°F 76°F (1921)
Min Temperature 34°F 37°F 18°F (1936)
Degree Days
Heating Degree Days 23 20  
Month to date heating degree days 313  
Since 1 July heating degree days 710  
Cooling Degree Days 0 0  
Month to date cooling degree days 0  
Year to date cooling degree days 965  
Moisture
Dew Point 33°F   
Average Humidity 70    
Maximum Humidity 79    
Minimum Humidity 54    
Precipitation
Precipitation 0.00 in 0.12 in 1.06 in (1911)
Month to date precipitation 1.89  
Year to date precipitation 41.32  
Wind
Wind Speed 8 mph   
Max Wind Speed 13 mph   
Max Gust Speed 16 mph   
Visibility 10 miles   
Events     

Key: T is trace of precipitation, MM is missing value
Source: NWS Daily Summary
Time(EST)TemperatureDew PointHumidity Pressure Visibility Wind DirectionWind SpeedGust SpeedPrecipitationEvents Conditions
12:54 AM 36.0°F 30.0°F 79% 30.64 in 10.0 miles North 5.8 mph - N/A   Clear
1:54 AM 36.0°F 28.9°F 76% 30.63 in 10.0 miles NNE 9.2 mph - N/A   Clear
2:54 AM 36.0°F 28.9°F 76% 30.63 in 10.0 miles NE 4.6 mph - N/A   Clear
3:54 AM 34.0°F 27.0°F 75% 30.63 in 10.0 miles NE 4.6 mph - N/A   Clear
4:54 AM 35.1°F 28.0°F 76% 30.64 in 10.0 miles NNE 6.9 mph - N/A   Clear
5:54 AM 34.0°F 28.0°F 79% 30.66 in 10.0 miles NE 5.8 mph - N/A   Clear
6:54 AM 36.0°F 28.9°F 76% 30.66 in 10.0 miles NNE 8.1 mph - N/A   Overcast
7:54 AM 39.0°F 30.9°F 73% 30.66 in 10.0 miles NNE 9.2 mph - N/A   Scattered Clouds
8:54 AM 43.0°F 33.1°F 68% 30.66 in 10.0 miles NE 10.4 mph - N/A   Mostly Cloudy
9:54 AM 45.0°F 35.1°F 68% 30.66 in 10.0 miles NE 10.4 mph - N/A   Scattered Clouds
10:54 AM 48.0°F 35.1°F 61% 30.66 in 10.0 miles ENE 11.5 mph - N/A   Partly Cloudy
11:54 AM 50.0°F 34.0°F 54% 30.63 in 10.0 miles East 11.5 mph 16.1 mph N/A   Mostly Cloudy
12:54 PM 50.0°F 36.0°F 59% 30.62 in 10.0 miles East 12.7 mph - N/A   Partly Cloudy
1:54 PM 50.0°F 37.0°F 61% 30.61 in 10.0 miles East 12.7 mph - N/A   Mostly Cloudy
2:54 PM 48.9°F 36.0°F 61% 30.60 in 10.0 miles East 9.2 mph - N/A   Mostly Cloudy
3:54 PM 48.9°F 36.0°F 61% 30.60 in 10.0 miles East 11.5 mph - N/A   Overcast
4:54 PM 46.0°F 35.1°F 66% 30.60 in 10.0 miles East 5.8 mph - N/A   Clear
5:54 PM 44.1°F 35.1°F 71% 30.61 in 10.0 miles ENE 5.8 mph - N/A   Clear
6:54 PM 42.1°F 34.0°F 73% 30.61 in 10.0 miles ENE 5.8 mph - N/A   Clear
7:54 PM 39.9°F 34.0°F 79% 30.61 in 10.0 miles NE 4.6 mph - N/A   Scattered Clouds
8:54 PM 43.0°F 36.0°F 76% 30.60 in 10.0 miles NNE 8.1 mph - N/A   Overcast
9:54 PM 44.1°F 35.1°F 71% 30.58 in 10.0 miles NNE 9.2 mph - N/A   Overcast
10:49 PM 44.6°F 35.6°F 71% 30.56 in 10.0 miles NE 9.2 mph - N/A   Overcast
10:54 PM 44.1°F 35.1°F 71% 30.57 in 10.0 miles NE 9.2 mph - N/A   Overcast
11:54 PM 43.0°F 34.0°F 71% 30.56 in 10.0 miles NE 8.1 mph - N/A   Overcast
Astronomy
Sunrise:06:49 AM (EST) Moon Rise:11:14 AM (EST)11/18
Sunset:04:40 PM (EST) Moon Set:09:57 PM (EST)11/18
Moon Phase
Nov. 18 Nov. 20 Nov. 28 Dec. 06 Dec. 13

Copyright © 2014 The Weather Underground, Inc.